RH
41 41 42 42 42 42 40 39 40 39 39 37 36 36 35 36 39 42 41 41 39 36 34 28 21 18 17 18 18 20 24 24 23 22 22 19 18 17 15 14 13 16 18 17 17 15 14 13 13 15 16 17 17 18 18 19 20 20 21 20 18 18 16 16 16 16 17 17 17 17 17 17 16 15 15 20 25 27 30 30 30 31 30 33 35 36 37 39
41 41 41 41 42 40 38 37 34 36 38 36 36 37 37 37 39 41 41 41 41 40 38 34 31 26 19 17 18 19 21 24 24 22 22 22 21 18 16 15 14 15 17 17 18 18 17 15 14 14 14 14 14 15 16 17 18 19 20 18 16 16 15 15 15 15 16 16 16 16 15 14 13 14 13 17 27 30 32 35 33 35 37 39 41 40 41 41
40 40 40 39 39 36 33 31 28 30 33 33 33 33 33 34 36 38 38 39 39 40 39 37 36 33 23 17 17 18 20 22 22 23 26 27 24 21 17 16 15 15 17 17 18 18 19 18 17 16 14 13 12 13 14 15 16 17 18 17 15 15 15 14 14 14 14 14 14 14 12 11 11 12 12 16 27 31 34 36 36 41 44 44 45 44 43 43
38 39 38 36 36 33 31 30 28 29 30 29 29 27 27 28 30 33 36 36 36 37 38 39 38 37 29 19 17 17 20 22 20 22 28 29 26 24 20 17 16 17 18 18 19 19 19 19 18 17 16 15 13 12 13 13 13 15 15 15 15 14 14 13 13 13 13 13 11 11 10 9 10 11 14 18 24 31 34 32 34 41 44 46 46 44 43 41
35 35 34 33 32 30 30 31 31 31 30 28 25 25 26 25 26 30 34 34 33 32 34 36 36 38 33 20 17 18 19 22 22 24 26 28 28 25 23 19 18 20 20 20 20 20 20 19 18 17 17 17 15 13 13 11 12 13 12 12 12 12 13 12 12 11 11 10 10 10 8 8 9 13 20 19 19 27 33 31 32 35 39 42 42 40 40 41
32 31 31 31 30 29 30 31 29 28 28 27 24 26 28 28 26 28 32 34 33 30 30 33 34 36 34 22 17 19 20 21 26 30 27 27 29 27 26 21 19 20 20 21 22 22 21 20 19 17 17 17 17 16 13 12 12 13 12 11 11 10 10 10 10 10 10 10 9 9 8 8 9 14 23 24 24 27 29 31 32 33 35 38 39 38 39 42
31 31 31 31 31 30 30 31 29 27 26 25 23 24 25 25 24 25 27 31 33 31 29 31 32 34 34 24 16 21 26 20 21 29 30 30 31 29 29 26 22 20 19 21 23 23 23 21 19 16 16 18 18 17 15 13 12 12 12 11 10 10 9 9 9 9 9 9 9 9 9 8 9 13 20 28 31 30 29 32 33 34 36 37 38 38 38 40
33 33 32 32 31 31 31 31 30 30 29 29 27 25 23 20 19 21 22 25 29 31 29 29 33 34 34 26 20 28 31 19 14 19 25 31 34 32 31 30 27 25 23 22 23 25 24 23 20 16 16 17 17 17 16 15 13 12 12 11 10 9 9 9 9 9 8 8 9 9 9 8 10 13 21 33 35 32 32 34 35 36 37 36 38 37 37 40
34 34 33 32 32 33 33 33 33 33 33 33 33 30 27 23 18 17 18 19 22 30 30 27 31 34 34 28 26 33 28 16 14 14 18 27 35 36 34 32 30 29 27 24 23 25 25 24 21 17 16 15 15 16 16 17 15 13 12 11 10 9 9 9 8 9 8 9 9 9 9 9 12 16 25 36 37 35 35 35 36 37 37 37 37 37 37 41
35 35 35 35 36 37 37 37 37 37 37 36 35 33 30 26 23 19 17 17 18 25 30 27 28 33 34 30 30 32 23 18 20 16 16 23 31 35 36 34 31 31 31 28 25 24 24 24 21 18 17 15 15 16 16 17 15 14 13 12 11 10 9 9 9 8 8 8 8 9 10 10 15 19 25 36 38 37 37 36 37 37 38 38 37 37 39 42
37 37 38 39 40 40 40 39 39 40 39 37 37 35 32 28 26 23 20 20 18 21 27 26 26 31 32 31 34 29 18 19 21 18 19 22 30 35 36 36 32 31 31 29 27 26 24 23 22 19 17 16 15 15 15 15 14 15 16 14 12 11 10 9 9 8 8 8 7 10 11 11 19 21 24 35 39 38 39 37 38 37 38 38 37 38 40 41
40 40 41 41 42 42 40 39 40 42 41 40 39 37 35 29 27 26 23 24 23 24 28 26 28 32 31 32 32 23 15 17 19 19 20 21 29 34 35 36 33 31 31 30 28 27 27 24 22 20 18 18 16 16 15 14 14 15 16 16 14 13 12 10 9 9 8 8 8 10 11 12 18 21 27 36 39 39 39 38 38 38 37 38 38 39 40 39
41 42 42 44 45 44 42 41 42 43 43 42 40 37 34 30 28 28 26 26 27 29 30 29 31 33 34 33 24 16 15 17 18 17 18 21 27 31 35 37 35 33 31 30 28 28 28 26 23 20 19 20 19 17 15 15 15 15 16 16 16 15 12 9 9 10 9 8 8 10 13 13 14 23 33 38 38 38 38 38 38 38 37 37 38 40 39 37
41 41 43 45 47 46 43 42 42 43 43 41 38 33 31 29 28 28 28 26 28 32 33 33 34 34 37 31 17 13 15 16 17 16 18 20 22 28 35 38 37 35 33 31 29 28 28 27 24 22 20 21 20 19 18 18 16 15 16 16 16 17 13 10 10 11 10 9 8 11 13 12 17 30 36 36 38 38 38 38 38 38 37 37 39 39 38 36
40 41 44 46 48 47 43 43 44 44 43 38 33 30 28 27 26 28 29 26 27 31 33 36 36 35 37 29 15 14 17 16 17 17 20 22 19 25 35 38 37 36 35 32 30 28 28 26 24 23 21 20 22 22 22 21 18 16 17 16 15 17 15 11 10 11 10 9 10 11 12 14 23 34 36 36 38 37 37 37 37 38 37 37 39 39 36 36
41 42 44 47 49 48 46 47 46 45 44 37 31 29 27 24 24 25 26 25 26 29 34 39 37 36 38 29 18 17 19 18 19 22 24 25 22 25 34 38 36 38 37 34 31 29 28 26 24 23 21 21 23 24 24 24 22 18 17 17 16 16 16 14 11 11 10 10 11 10 15 24 30 33 35 36 37 36 37 37 37 38 37 36 38 39 37 36
43 44 45 46 49 53 54 53 50 47 43 36 33 29 24 22 22 23 24 25 28 31 38 41 39 39 35 26 21 22 24 22 22 25 25 24 24 24 32 36 36 40 41 36 32 30 28 26 24 23 22 22 23 26 28 26 24 21 18 18 17 16 16 15 12 11 10 11 11 10 17 28 32 33 36 37 37 37 36 36 36 36 36 37 39 40 40 38
44 47 49 51 54 59 62 59 55 50 43 37 34 28 24 25 24 26 30 34 38 42 46 47 45 41 29 25 29 28 29 27 23 24 23 23 24 25 31 36 38 43 44 40 34 30 29 26 25 26 24 23 24 25 27 24 21 22 21 20 18 15 15 14 13 12 11 10 12 11 16 27 33 35 37 37 37 36 35 36 36 36 36 39 42 43 43 42
49 53 56 58 59 62 65 64 58 50 43 36 31 27 27 29 29 32 38 45 53 56 57 55 49 40 28 29 38 36 29 29 29 27 24 24 25 25 30 37 42 46 46 42 36 31 30 29 29 28 24 21 21 22 23 21 20 22 22 20 18 15 15 14 12 13 12 12 12 11 16 28 35 35 36 37 37 36 35 35 36 37 39 42 45 44 44 43
59 62 62 61 60 63 67 66 57 49 44 35 30 31 32 34 36 38 45 53 57 58 59 59 52 41 33 32 39 41 34 31 34 32 28 26 25 26 32 39 46 49 47 43 37 32 31 33 30 25 21 19 20 23 24 23 21 21 20 19 17 16 15 14 13 13 13 13 12 13 22 32 34 34 35 36 37 36 35 35 35 37 41 43 45 46 46 45
66 69 69 66 62 64 68 65 56 48 43 36 33 37 39 42 43 43 50 54 53 56 59 60 55 42 35 36 40 47 45 36 34 34 33 29 26 29 34 41 49 50 47 44 41 37 36 35 28 22 21 20 21 25 25 24 22 20 20 19 17 16 15 14 14 14 14 14 13 18 28 33 33 35 36 36 37 36 35 35 35 36 40 45 47 49 48 46
72 71 72 70 64 63 68 66 58 50 42 37 38 39 41 47 50 52 58 57 50 55 58 55 54 44 37 43 47 52 53 43 38 39 38 34 30 31 33 39 47 48 47 48 46 43 40 35 27 23 24 23 23 26 26 25 23 20 20 19 18 17 15 14 14 15 16 14 17 26 33 34 34 36 37 37 37 36 35 35 36 36 39 44 48 49 48 46
75 73 73 73 66 64 69 68 61 53 45 41 40 38 42 50 55 57 65 66 53 52 56 53 52 48 42 49 50 50 54 49 45 48 45 39 35 33 32 36 43 47 50 49 46 46 43 36 31 28 26 25 24 26 26 26 24 22 21 20 20 18 15 14 14 16 17 17 24 33 36 36 36 39 40 39 36 36 38 38 40 42 44 45 48 48 47 46
76 76 76 76 71 68 72 72 64 58 51 47 43 40 45 52 56 61 66 68 62 58 56 52 50 47 46 56 54 47 52 52 52 56 49 42 41 37 33 34 41 48 49 46 45 46 43 38 34 31 28 27 25 25 27 27 25 23 21 21 20 18 16 16 17 18 19 22 29 34 40 45 43 44 45 40 38 40 41 43 43 46 49 49 48 47 46 46
75 77 79 80 77 74 76 74 69 66 59 51 47 48 52 54 56 63 64 66 68 63 58 57 54 46 43 54 55 46 52 55 54 59 51 43 43 38 35 36 40 46 46 45 44 45 43 37 33 32 30 28 26 25 25 26 26 24 22 21 20 18 17 18 19 20 19 22 26 30 45 60 53 47 49 44 43 46 47 47 46 47 50 49 48 47 45 46
75 77 79 80 80 79 79 77 76 73 64 57 56 58 61 61 61 63 66 70 71 64 63 64 56 47 43 51 54 48 53 55 55 60 52 44 43 39 39 39 37 41 44 45 43 43 44 38 33 34 31 29 29 26 24 25 25 25 23 21 21 20 20 20 20 21 21 21 23 22 36 58 60 52 52 49 50 51 50 50 49 49 50 48 47 46 44 45
75 77 76 78 80 82 81 82 80 74 69 66 66 68 69 70 68 66 68 74 71 66 69 65 55 51 48 49 50 48 53 59 61 63 54 46 45 41 42 40 37 40 42 44 44 41 42 40 34 34 33 31 30 27 24 23 24 24 22 21 23 23 22 23 21 22 23 22 24 23 27 48 59 52 49 51 53 54 53 51 50 49 49 47 45 44 44 45
75 75 75 76 79 81 82 86 84 77 76 73 72 76 76 76 76 73 75 76 69 68 71 66 58 56 51 48 48 46 53 65 69 68 59 52 48 42 40 39 38 43 43 43 44 39 39 41 35 33 35 32 28 26 24 22 23 23 22 24 26 25 25 25 22 22 23 21 23 26 27 42 55 49 47 54 56 56 56 50 45 44 46 45 43 43 44 46
74 74 74 76 80 81 82 86 85 81 80 77 78 82 81 83 83 81 84 78 69 70 73 69 62 61 57 52 49 47 53 65 72 72 65 58 52 43 42 40 38 44 44 41 44 41 38 39 35 33 34 31 27 27 25 23 23 21 24 28 28 28 27 25 25 24 24 24 22 24 27 41 57 54 50 58 59 54 51 46 43 45 46 45 43 43 44 46
76 75 74 78 81 82 83 86 84 83 84 84 86 87 87 89 88 88 88 76 69 73 75 70 65 64 62 57 53 50 51 63 72 72 69 63 56 47 42 40 38 43 46 42 43 43 38 36 36 32 30 30 30 29 26 24 22 22 27 30 29 31 30 28 29 26 26 26 19 21 27 34 49 56 52 50 46 41 42 44 46 49 49 46 43 44 46 47
77 77 76 81 84 85 87 87 84 86 87 88 90 91 93 92 92 96 90 74 71 79 79 73 69 68 64 59 59 54 50 59 68 72 72 66 59 53 47 43 41 44 47 44 42 42 39 36 34 30 28 30 32 31 27 24 22 23 28 31 31 33 31 29 31 28 27 24 17 20 28 31 39 50 50 41 32 30 36 42 46 47 46 44 44 46 48 49
76 78 80 84 86 88 89 87 87 88 89 90 92 93 95 95 96 95 87 78 78 83 84 79 75 76 71 61 58 56 52 55 63 70 73 66 60 57 51 47 43 43 47 45 42 41 39 35 32 32 32 31 31 32 30 26 23 25 29 32 34 34 33 32 32 30 27 23 20 22 27 34 36 38 39 36 30 29 30 34 41 43 43 44 46 47 48 48
74 78 81 83 85 87 87 89 93 93 91 93 95 94 96 99 96 88 84 84 80 80 85 86 82 82 79 68 59 56 54 54 58 66 68 62 58 55 51 46 40 40 45 44 43 42 40 37 35 35 35 32 31 31 30 27 24 25 28 30 33 34 35 35 33 31 27 23 24 24 27 35 35 31 32 31 29 28 28 32 39 43 45 47 48 48 48 49
73 77 81 82 84 86 86 88 93 95 95 96 96 97 99 98 90 84 87 86 81 81 86 90 88 86 83 76 64 56 58 57 56 63 66 58 55 55 51 46 41 41 45 44 44 44 44 44 38 34 32 30 30 28 27 26 24 23 26 29 31 30 30 33 32 31 29 26 26 28 33 36 34 33 31 27 27 29 33 38 42 46 51 52 50 49 50 51
72 77 81 83 85 89 89 88 90 95 97 96 97 99 100 95 87 88 91 87 85 88 88 88 91 92 89 82 68 57 60 63 57 61 64 55 53 55 50 44 40 41 44 45 44 42 42 43 36 31 30 28 29 27 25 25 25 25 27 28 29 27 27 31 34 36 34 30 29 32 37 36 33 35 32 27 30 35 40 44 46 49 53 52 49 48 49 51
72 77 82 85 87 91 94 92 92 97 96 94 97 100 97 91 90 92 92 90 91 93 93 90 90 95 95 89 77 59 55 64 62 59 60 50 46 50 46 43 40 39 43 45 45 42 39 40 36 32 32 29 29 28 25 25 26 27 26 25 24 27 29 30 34 38 36 32 32 34 38 39 37 37 35 31 36 42 46 49 49 51 53 51 49 48 48 51
73 77 83 86 89 94 97 96 97 98 97 94 95 96 91 87 89 91 92 95 97 96 97 94 90 95 94 90 85 64 53 61 61 57 58 50 45 46 42 41 40 38 40 41 45 45 41 42 39 32 32 31 28 27 25 24 27 26 23 23 25 29 33 34 35 37 37 37 36 35 40 43 39 39 39 37 39 44 49 52 51 51 51 50 51 50 50 52
73 77 83 88 92 96 98 99 99 99 98 95 93 91 87 86 88 90 92 94 96 97 97 94 93 94 91 89 84 64 52 57 57 55 57 51 47 44 39 39 38 37 38 39 45 47 44 45 40 32 32 32 28 28 28 25 25 25 23 23 28 31 32 33 36 37 38 40 36 33 41 45 39 42 44 39 39 43 47 51 51 49 49 52 53 53 52 53
73 78 85 89 95 97 98 99 100 100 99 96 95 91 87 86 87 89 89 88 92 95 93 92 94 96 94 90 81 62 50 53 54 53 53 50 47 43 37 36 37 37 37 40 45 49 49 50 44 35 33 33 30 28 28 26 25 26 26 26 28 30 29 29 33 36 37 43 42 36 44 48 41 43 44 38 39 42 45 48 47 47 51 53 54 53 53 56
75 82 86 90 97 99 98 99 100 101 100 97 96 92 87 85 87 90 89 86 91 94 92 93 95 96 95 86 75 63 53 52 54 51 51 49 45 41 36 34 36 36 36 41 47 50 51 53 51 42 34 34 32 28 25 24 24 26 28 28 26 26 27 29 32 32 34 45 51 47 50 50 42 42 43 39 39 43 44 44 43 47 52 52 53 54 56 58
77 85 87 91 99 99 98 100 100 99 100 98 96 91 86 83 84 89 90 86 89 92 95 98 95 92 90 81 71 63 55 54 55 52 52 47 40 38 36 32 34 36 37 42 48 51 52 56 56 46 35 32 30 25 23 23 24 25 28 29 27 25 28 31 32 33 33 39 47 51 52 48 41 41 43 41 41 43 43 42 43 48 49 50 52 54 57 59
78 84 86 91 99 100 99 100 100 99 99 97 92 85 83 84 83 87 88 87 89 92 95 97 90 85 85 80 69 60 57 59 55 51 51 44 38 38 34 31 34 35 37 43 47 50 53 55 54 45 36 32 29 26 26 25 26 27 28 30 29 28 30 33 36 37 33 33 40 45 46 45 45 44 42 43 43 43 43 42 45 48 47 49 54 55 58 59
78 83 86 91 98 100 99 99 99 99 97 95 90 83 81 84 85 84 85 86 91 95 93 87 81 80 81 75 68 63 63 63 56 51 48 43 40 38 31 31 34 35 41 50 53 53 54 53 51 45 38 33 30 29 28 28 28 29 30 30 30 29 29 33 41 40 34 33 37 39 40 44 49 48 44 45 45 44 45 44 46 49 49 51 54 55 57 58
78 82 85 92 99 100 99 100 99 98 94 93 92 87 83 84 83 81 82 86 90 90 85 78 76 81 80 73 72 73 71 67 63 57 52 48 44 37 30 31 33 37 46 55 56 54 53 55 52 45 40 37 35 34 32 31 30 30 32 31 29 29 29 31 37 36 33 36 37 38 41 44 47 48 47 49 48 48 49 47 48 50 49 49 51 53 53 54
75 80 83 91 98 100 99 100 100 97 93 90 90 88 87 86 85 84 85 86 84 79 77 77 77 81 80 74 77 80 75 70 67 60 54 51 45 35 30 29 31 39 49 55 58 57 59 63 59 50 47 45 41 38 35 32 31 31 33 30 27 28 28 30 33 33 35 38 36 37 41 44 48 50 49 50 51 51 52 50 49 50 49 49 52 52 52 52
73 77 81 88 95 99 100 99 99 95 88 85 85 84 84 87 89 90 89 86 82 76 76 77 75 75 77 75 76 79 77 72 68 61 55 51 47 38 30 28 33 43 52 57 61 63 65 68 66 58 49 40 35 35 34 30 28 29 31 29 28 29 29 31 32 33 37 39 38 40 42 45 50 52 50 51 52 51 53 52 50 49 50 50 52 53 53 53
71 75 78 84 91 97 99 98 96 91 83 80 81 79 81 86 90 91 87 80 76 72 72 75 74 76 80 78 73 76 78 73 68 64 58 54 52 42 31 31 39 48 56 59 59 62 65 66 65 59 49 39 35 35 33 30 30 31 32 31 31 32 31 29 30 35 38 37 38 44 46 46 47 49 50 51 51 50 52 51 48 48 49 49 50 51 52 53
71 75 78 83 90 95 97 96 92 88 82 79 79 78 78 80 83 84 80 75 72 67 68 76 77 74 76 75 73 75 76 71 66 62 56 56 54 42 32 38 47 53 60 61 60 63 65 63 62 57 49 42 38 35 32 32 33 33 33 33 32 33 30 26 31 39 36 32 38 45 47 45 45 47 47 47 47 48 48 48 48 48 50 50 49 49 51 53
70 76 79 83 89 94 98 97 90 87 84 80 79 79 78 78 79 78 75 75 73 67 70 80 79 72 72 72 72 74 73 67 63 61 59 57 52 43 41 47 51 58 64 62 60 64 65 64 64 58 48 43 39 36 33 31 33 34 33 34 34 34 32 28 35 42 36 33 42 47 47 48 48 47 46 44 45 46 47 48 48 49 50 49 49 50 51 53
68 73 77 82 87 92 97 98 91 88 85 80 80 80 78 78 78 75 74 76 74 70 71 75 76 78 80 76 71 71 69 64 63 63 62 58 52 47 50 52 51 59 66 61 58 60 61 64 66 58 48 44 43 41 36 33 34 33 34 37 36 34 33 31 35 40 38 40 45 46 47 50 53 52 51 49 48 48 49 50 49 50 50 50 51 53 54 56
66 70 74 79 83 87 94 97 91 87 83 80 80 80 80 80 77 76 77 77 75 74 71 68 72 80 82 76 70 68 65 63 64 62 57 54 52 50 51 53 55 61 65 60 57 60 61 62 63 57 51 47 46 44 40 37 36 33 33 36 35 32 31 31 33 36 38 42 45 45 45 49 54 56 54 53 52 51 52 52 52 51 51 51 54 56 57 60
65 68 71 76 79 83 91 96 92 84 80 80 81 80 81 81 77 76 80 78 76 75 73 72 75 78 79 74 66 61 60 61 62 59 51 48 50 50 50 55 59 61 62 60 59 63 65 62 57 54 51 48 47 48 43 37 36 36 37 38 36 34 32 31 31 33 36 42 44 42 42 47 54 55 54 54 54 52 52 53 52 52 53 54 57 59 61 62